Flag for Cuba Weather past 2 weeks in Holguín, Cuba

Now
72 °F

Passing clouds.


Feels Like: 69 °F
Forecast: 76 / 90 °F
Wind: 2 mph from North

Location: Holguin Civ / Mil

Current Time: May 23, 2015 at 3:55:20 AM

Latest Report: May 23, 2015 at 2:50 AM


Visibility: N/A

Pressure: 30.07 "Hg

Humidity: 88%

Dew point: 68 °F

Location of HolguínLocation

Historic Weather in Holguín — Graph

°F

Holguín temperature yesterday

Maximum temperature yesterday: 91 °F (at 12:55 PM)
Minimum temperature yesterday: 72 °F (at 3:50 AM)
Average temperature yesterday: 79 °F

Past Weeks' High & Low Weather Summary

 TemperatureHumidityPressure
High93 °F (May 8, 1:50 PM)94% (May 8, 2:51 AM)30.12 "Hg (May 8, 2:51 AM)
Low70 °F (May 8, 6:46 AM)30% (May 8, 2:50 PM)29.89 "Hg (May 20, 4:50 PM)
Average81 °F67%30.02 "Hg
* Reported May 8 1:50 AM — May 23 1:51 AM, Holguín, Weather by CustomWeather, © 2015

Note: Actual official high and low records may vary slightly from our data, if they occured in-between our weather recording intervals... More about our weather records

Advertising

Holguín weather history for previous 24 hours

 ConditionsComfort  
Time TempWeatherWind HumidityBarometerVisibility
1:51 AM
Sat, May 23
73 °FPassing clouds.3 mph89%30.07 "HgN/A
11:50 PM
Fri, May 22
72 °FPassing clouds.3 mph83%30.09 "HgN/A
10:50 PM75 °FPassing clouds.5 mph78%30.09 "HgN/A
9:50 PM73 °FPassing clouds.5 mph83%30.09 "HgN/A
8:51 PM75 °FPassing clouds.6 mph74%30.09 "HgN/A
7:52 PM77 °FScattered clouds.7 mph69%30.09 "HgN/A
6:51 PM84 °FBroken clouds.13 mph62%30.07 "HgN/A
5:51 PM84 °FPartly sunny.17 mph66%30.01 "HgN/A
4:50 PM86 °FBroken clouds.16 mph62%30.01 "Hg6 mi
3:50 PM88 °FScattered clouds.17 mph55%30.01 "Hg6 mi
2:50 PM91 °FPartly sunny.13 mph49%30.04 "HgN/A
1:50 PM88 °FPartly sunny.15 mph55%30.04 "HgN/A
12:55 PM91 °FPartly sunny.2 mph44%30.04 "HgN/A
11:50 AM88 °FScattered clouds.6 mph52%30.07 "HgN/A
10:50 AM86 °FScattered clouds.7 mph55%30.07 "Hg6 mi
9:50 AM84 °FPassing clouds.5 mph66%30.07 "Hg6 mi
8:55 AM81 °FFog.6 mph74%30.07 "Hg4 mi
7:50 AM75 °FFog.5 mph89%30.04 "Hg4 mi
6:50 AM72 °FLight fog.3 mph88%30.04 "Hg2 mi
5:50 AM72 °FFog.2 mph88%30.01 "Hg4 mi
4:50 AM72 °FFog.2 mph88%30.01 "Hg4 mi
3:50 AM72 °FFog.1 mph88%30.01 "Hg4 mi
Weather by CustomWeather, © 2015

See weather overviewHow to use our weather pages